Location: Kosice
(0.0000°N, 21.2500°E)
Time: 19:08:03
(UTC+01:00)

Cosmos 405 - Pass Details

Date: 24 January 2021
Orbit: 448 x 462 km, 81.3° (Epoch: 02 March)

Event Time Altitude Azimuth Distance (km) Brightness Sun altitude
Exits shadow 18:37:29 - 21° (NNE) 1,761 5.5 -11.9°
Reaches altitude 10° 18:37:57 10° 24° (NNE) 1,589 5.3 -12.0°
Maximum altitude 18:40:58 28° 85° (E) 886 3.8 -12.7°
Drops below altitude 10° 18:43:59 10° 146° (SE) 1,589 5.5 -13.4°
Sets 18:46:15 0° 157° (SSE) 2,462 6.6 -13.9°
